Regional Weather Roundup
Issued by NWS

Home | Current Version | Previous Version | Graphics & Text | Print | Product List | Glossary On
Versions: 1 2 3 4 5 6 7 8 9 10 11 12 13 14 15 16 17 18 19 20 21 22 23 24 25 26 27 28 29 30 31 32 33 34 35 36 37 38 39 40 41 42 43 44 45 46 47 48 49 50
000
ASUS45 KTFX 212310
RWRMT
MONTANA REGIONAL WEATHER ROUNDUP
NATIONAL WEATHER SERVICE GREAT FALLS MT
400 PM MST SAT JAN 21 2017

NOTE: "FAIR" INDICATES FEW OR NO CLOUDS BELOW 12000 FEET WITH NO
SIGNIFICANT WEATHER AND/OR OBSTRUCTIONS TO VISIBILITY.

MTZ001>007-043-220000-
WEST OF THE DIVIDE

CITY           SKY/WX    TMP DP  RH WIND       PRES   REMARKS
KALISPELL      CLOUDY    28  24  85 SW3       29.60R
MISSOULA       CLOUDY    25  24  96 W3        29.61R FOG
BUTTE          CLOUDY    33  19  56 NE3       29.52R
MULLAN PASS    FOG       26  25  96 CALM      29.49R VSB 1/4
ANACONDA         N/A     27  18  69 N5        29.55R
DEER LODGE       N/A     25  16  68 NW3       29.58R
EUREKA           N/A     28  23  80 CALM      29.63R
HAMILTON         N/A     28  23  80 CALM      29.59R
PLAINS           N/A     27  22  81 CALM      29.64R
RONAN            N/A     26  24  92 CALM      29.67R
$$

MTZ008-052>055-220000-
SOUTHWEST MONTANA

CITY           SKY/WX    TMP DP  RH WIND       PRES   REMARKS
BOZEMAN        CLOUDY    26  15  63 CALM      29.55R
DILLON         CLOUDY    34  19  54 N5        29.53R
W YELLOWSTONE  CLOUDY    27  23  86 SW9       29.53R WCI  17
ENNIS          PTSUNNY   34  23  64 S9        29.57R WCI  26
TWIN BRIDGES     N/A     25  13  60 E3        29.60R
$$

MTZ009-010-012-014-046-048-049-054-220000-
EAST SLOPES AND CENTRAL MONTANA

CITY           SKY/WX    TMP DP  RH WIND       PRES   REMARKS
CUT BANK       MOCLDY    33  23  66 N8        29.51R WCI  26
GREAT FALLS    CLEAR     35  21  56 W8        29.51R WCI  29
MALMSTROM AFB  CLEAR     35  23  63 W6        29.53R WCI  29
HELENA         MOCLDY    20  14  77 CALM      29.56R
AUGUSTA        MOCLDY    33  23  65 NE5       29.50R
BOWMANS CRNR     N/A     30  20  65 SW5       29.50R
CHOTEAU          N/A     34  25  69 NE5       29.53R
CONRAD           N/A     34  27  76 W3        29.58R
POWER            N/A     30  23  77 W6        29.51R WCI  24
RAYNESFORD       N/A     34  21  58 NW6       29.51R WCI  29
ULM              N/A     34  24  65 MISG      29.53R
$$

MTZ011-013-016-021-045-047-050-051-220000-
NORTH CENTRAL MONTANA

CITY           SKY/WX    TMP DP  RH WIND       PRES   REMARKS
HAVRE          CLEAR     31  27  85 SW8       29.52R WCI  23
LEWISTOWN      CLOUDY    32  23  69 W5        29.49R
CHINOOK          N/A     34  27  75 W9        29.51R WCI  26
DENTON           N/A     35  24  64 NW5       29.48R
FORT BENTON      N/A     37  25  60 MISG      29.54R
GEYSER           N/A     37  18  46 W12       29.49R WCI  29
GRASS RANGE      N/A     38  22  53 W15       29.45R WCI  29
JUDITH GAP       N/A     31  21  66 N14       29.48R WCI  20
ROY              N/A     35  25  65 MISG      29.48R
STANFORD         N/A     32  22  66 CALM      29.49R
WINIFRED         N/A     34  24  67 W6        29.50R WCI  29
$$

MTZ017>020-022>027-061-062-220000-
NORTHEAST MONTANA

CITY           SKY/WX    TMP DP  RH WIND       PRES   REMARKS
GLASGOW        CLEAR     31  23  72 W5        29.47R
JORDAN           N/A     40  30  67 W6        29.47R
SIDNEY         CLEAR     31  25  78 SW9       29.47R WCI  23
WOLF POINT     CLEAR     26  19  74 W13       29.48R WCI  15
PLENTYWOOD       N/A     30  28  93 NW16      29.44R WCI  19
POPLAR           N/A     27  19  74 W5        29.48R
SCOBEY           N/A     30  23  75 NW12      29.47R WCI  20
$$

MTZ028>42-056>058-220000-
SOUTHCENTRAL AND SOUTHEAST MONTANA

CITY           SKY/WX    TMP DP  RH WIND       PRES   REMARKS
BAKER          CLEAR     26  22  84 W10       29.48R WCI  16
BILLINGS       MOCLDY    35  21  56 SW12      29.49R WCI  27
LIVINGSTON     CLOUDY    32  18  56 NW5       29.50R
MILES CITY     CLEAR     22  18  85 S8        29.50R WCI  12
BIG TIMBER     CLEAR     32  19  59 NW12      29.51R WCI  23
EKALAKA          N/A     30  24  78 SW6       29.51R WCI  24
FORSYTH          N/A     25  21  86 SE3       29.50R
HARLOWTON        N/A     36  20  53 W16       29.48R WCI  26
LAUREL           N/A     30  18  61 CALM      29.53R
$$

REGIONAL REPORTS...DAKOTAS

CITY           SKY/WX    TMP DP  RH WIND       PRES   REMARKS
WILLISTON      CLEAR     31  25  78 W8        29.46R WCI  23
MINOT          CLOUDY    28  25  88 SW8       29.43R WCI  20
DICKINSON      CLEAR     31  24  75 W14       29.42R WCI  21
BEACH            N/A     28  25  86 W10       29.50R WCI  19
CROSBY         CLOUDY    28  28 100 CALM      29.46R FOG
TIOGA          CLOUDY    28  28 100 NW8       29.44R WCI  20
WATFORD CITY     N/A     30  25  80 W8        29.46R WCI  23
BISMARCK       CLOUDY    31  28  89 SW7       29.46R WCI  24
GRAND FORKS    CLOUDY    36  32  85 E3        29.48R
FARGO          CLOUDY    38  34  85 N3        29.46R
BUFFALO SD       N/A     35  28  75 NW12      29.40R WCI  27
RAPID CITY     CLEAR     38  28  67 N12       29.47R WCI  30
$$

REGIONAL REPORTS...WYOMING/IDAHO/WASHINGTON

CITY           SKY/WX    TMP DP  RH WIND       PRES   REMARKS
GILLETTE       CLOUDY    36  28  73 E5        29.46R
SHERIDAN       CLOUDY    32  22  66 CALM      29.49R
BUFFALO WY     CLOUDY    34  24  67 CALM      29.48R
CODY           CLOUDY    23  16  74 NE6       29.49R WCI  16
YELLOWSTONE LA   N/A     23  20  88 CALM      29.52R
IDAHO FALLS    CLOUDY    30  27  88 S12       29.63R WCI  20
SALMON         CLOUDY    23  19  86 CALM      29.62R
BOISE          CLOUDY    40  33  76 SE7       29.67R
SPOKANE        PTSUNNY   38  32  79 E7        29.54R
$$

REGIONAL REPORTS...ALBERTA

CITY           SKY/WX    TMP DP  RH WIND       PRES   REMARKS
EDMONTON         N/A     21  18  86 N7        29.67R VSB 1/4 WCI  13
CALGARY        PTCLDY    32  25  74 NE8       29.55R WCI  25
LETHBRIDGE     MOCLDY    36  27  69 W6        29.54R WCI  31
MEDICINE HAT   FOG       27  27 100 W7        29.55R VSB 5/8 WCI  19
WATERTON GATE    N/A     34  18  51 NE6         N/A  WCI  29
CARDSTON         N/A     32  21  64 N2          N/A
MILK RIVER       N/A     32  23  69 NW8         N/A  WCI  25
$$

REGIONAL REPORTS...SASKATCHEWAN

CITY           SKY/WX    TMP DP  RH WIND       PRES   REMARKS
SWIFT CURRENT  FRZ RAIN  27  27 100 W14       29.45R VSB 1/8 WCI  15
REGINA         CLOUDY    25  25 100 NW13      29.44R FOG     WCI  13
SASKATOON      FLURRIES  30  27  86 N7        29.50R WCI  23
CYPRESS HILLS    N/A     27  23  86 NW9         N/A  WCI  17
VAL MARIE        N/A     34  27  75 W9          N/A  WCI  26
ROCKGLEN         N/A     27  27 100 NW13        N/A  WCI  16
ASSINIBOIA       N/A     25  23  93 N7          N/A  WCI  17
$$



USA.gov is the U.S. government's official web portal to all federal, state and local government web resources and services.